Change the Weather History Date:

Wednesday, April 30, 2014

  Actual Average Record
Temperature  
Mean Temperature 38 °F -  
Max Temperature 41 °F 67 °F 87 °F (1992)
Min Temperature 35 °F 42 °F 25 °F (1956)
Degree Days  
Heating Degree Days 27    
Moisture  
Dew Point 36 °F    
Average Humidity 90    
Maximum Humidity 93    
Minimum Humidity 87    
Precipitation  
Precipitation 0.06 in - - ()
Sea Level Pressure  
Sea Level Pressure 29.75 in    
Wind  
Wind Speed 14 mph (NW)    
Max Wind Speed 20 mph    
Max Gust Speed 25 mph    
Visibility 8 miles    
Events Rain    
Averages and records for this station are not official NWS values.
T = Trace of Precipitation, MM = Missing Value Source: NWS Daily Summary

Daily Weather History Graph

Daily Weather History Graph

Search for Another Location

Airport or City:

Trip Planner

Search our weather history database for the weather conditions in past years. The results will help you decide how hot, cold, wet, or windy it might be!

Date:

Astronomy

Apr. 30, 2014 Rise Set
Actual Time 6:09 AM CDT 8:11 PM CDT
Civil Twilight 5:38 AM CDT 8:42 PM CDT
Nautical Twilight 5:01 AM CDT 9:20 PM CDT
Astronomical Twilight 4:20 AM CDT 10:01 PM CDT
Moon 7:10 AM CDT (4/30) 9:52 PM CDT (4/30)
Length of Visible Light 15h 03m
Length of Day
14h 02m
New Moon, 2% of the Moon is Illuminated
Apr 30
New Moon
May 6
First Quarter
May 14
Full
May 21
Last Quarter
May 28
New

Hourly Weather History & Observations

Time (CDT) Temp. Windchill Dew Point Humidity Pressure Visibility Wind Dir Wind Speed Gust Speed Precip Events Conditions
12:15 AM 35.4 °F 25.6 °F 32.5 °F 89% 29.72 in 10.0 mi NW 16.1 mph - N/A   Overcast
12:35 AM 35.6 °F 26.2 °F 32.4 °F 88% 29.72 in 10.0 mi NW 15.0 mph - N/A   Overcast
12:55 AM 35.6 °F 26.6 °F 32.2 °F 87% 29.72 in 10.0 mi NW 13.8 mph - N/A   Overcast
1:15 AM 35.6 °F 26.2 °F 32.4 °F 88% 29.72 in 10.0 mi NW 15.0 mph 18.4 mph N/A   Overcast
1:35 AM 35.6 °F 26.2 °F 32.5 °F 89% 29.72 in 10.0 mi NW 15.0 mph - N/A   Overcast
1:55 AM 35.6 °F 25.9 °F 32.4 °F 88% 29.72 in 10.0 mi NW 16.1 mph - N/A   Overcast
2:16 AM 35.6 °F 26.6 °F 32.4 °F 88% 29.72 in 10.0 mi NW 13.8 mph - N/A   Overcast
2:35 AM 35.6 °F 26.6 °F 32.5 °F 89% 29.72 in 10.0 mi NW 13.8 mph - N/A   Overcast
2:55 AM 35.6 °F 25.9 °F 32.5 °F 89% 29.72 in 10.0 mi NW 16.1 mph - N/A   Overcast
3:15 AM 35.6 °F 26.2 °F 32.5 °F 89% 29.72 in 10.0 mi NW 15.0 mph - N/A   Overcast
3:35 AM 35.8 °F 26.9 °F 32.7 °F 89% 29.72 in 10.0 mi NW 13.8 mph - N/A   Overcast
3:55 AM 35.8 °F 26.5 °F 32.9 °F 89% 29.72 in 10.0 mi NW 15.0 mph 19.6 mph N/A   Overcast
4:15 AM 35.8 °F 27.3 °F 32.9 °F 89% 29.72 in 10.0 mi NW 12.7 mph - N/A   Overcast
4:35 AM 35.8 °F 26.9 °F 32.7 °F 89% 29.73 in 10.0 mi NW 13.8 mph - N/A   Overcast
4:55 AM 35.8 °F 27.3 °F 32.4 °F 87% 29.73 in 10.0 mi NW 12.7 mph - N/A   Overcast
5:15 AM 35.8 °F 29.4 °F 32.4 °F 87% 29.73 in 10.0 mi NW 8.1 mph 19.6 mph N/A   Overcast
5:35 AM 35.8 °F 26.5 °F 32.5 °F 88% 29.73 in 10.0 mi NW 15.0 mph 20.7 mph N/A   Overcast
5:55 AM 35.8 °F 26.5 °F 32.7 °F 89% 29.73 in 10.0 mi NW 15.0 mph - N/A   Overcast
6:15 AM 35.8 °F 27.3 °F 32.9 °F 89% 29.74 in 10.0 mi NW 12.7 mph - N/A   Overcast
6:35 AM 35.6 °F 27.1 °F 33.1 °F 91% 29.73 in 10.0 mi NW 12.7 mph - N/A   Light Drizzle
6:55 AM 35.6 °F 27.5 °F 33.4 °F 92% 29.74 in 5.0 mi WNW 11.5 mph - N/A   Drizzle
7:15 AM 35.6 °F 27.5 °F 33.8 °F 93% 29.73 in 4.0 mi WNW 11.5 mph - N/A   Drizzle
7:35 AM 35.8 °F 27.8 °F 34.0 °F 93% 29.74 in 5.0 mi WNW 11.5 mph - N/A   Light Drizzle
7:55 AM 36.5 °F 27.8 °F 34.3 °F 92% 29.73 in 7.0 mi NW 13.8 mph - N/A   Light Drizzle
8:15 AM 36.7 °F 27.2 °F 34.5 °F 92% 29.74 in 7.0 mi NW 16.1 mph - N/A   Drizzle
8:35 AM 36.9 °F 28.7 °F 34.3 °F 91% 29.74 in 7.0 mi NW 12.7 mph - N/A   Drizzle
8:55 AM 37.4 °F 28.5 °F 34.7 °F 90% 29.74 in 7.0 mi NW 15.0 mph 18.4 mph N/A   Drizzle
9:15 AM 37.4 °F 29.8 °F 34.7 °F 90% 29.75 in 7.0 mi NW 11.5 mph 21.9 mph N/A   Drizzle
9:35 AM 37.6 °F 28.8 °F 34.9 °F 90% 29.75 in 7.0 mi NW 15.0 mph - N/A   Drizzle
9:55 AM 37.9 °F 29.6 °F 35.2 °F 90% 29.75 in 4.0 mi NW 13.8 mph - N/A   Drizzle
10:15 AM 38.3 °F 29.3 °F 35.4 °F 89% 29.75 in 5.0 mi NW 16.1 mph - N/A   Drizzle
10:35 AM 38.3 °F 29.0 °F 35.6 °F 90% 29.76 in 5.0 mi NW 17.3 mph - N/A   Drizzle
10:55 AM 38.7 °F 29.8 °F 36.1 °F 91% 29.76 in 7.0 mi NW 16.1 mph - N/A   Drizzle
11:15 AM 38.8 °F 30.0 °F 35.8 °F 89% 29.76 in 10.0 mi NW 16.1 mph - N/A Rain Rain
11:35 AM 38.8 °F 30.4 °F 36.0 °F 89% 29.76 in 7.0 mi NW 15.0 mph - N/A Rain Light Rain
11:55 AM 39.2 °F 30.8 °F 36.3 °F 89% 29.76 in 5.0 mi NW 15.0 mph - N/A   Light Drizzle
12:15 PM 39.2 °F 31.2 °F 36.3 °F 89% 29.77 in 7.0 mi NW 13.8 mph - N/A Rain Rain
12:35 PM 39.2 °F 31.2 °F 36.1 °F 89% 29.77 in 5.0 mi WNW 13.8 mph - N/A Rain Rain
12:55 PM 39.6 °F 31.7 °F 36.3 °F 88% 29.77 in 10.0 mi NW 13.8 mph - N/A Rain Light Rain
1:15 PM 39.6 °F 30.6 °F 36.3 °F 88% 29.76 in 10.0 mi WNW 17.3 mph 20.7 mph N/A Rain Rain
1:35 PM 39.2 °F 30.2 °F 36.1 °F 89% 29.77 in 10.0 mi WNW 17.3 mph - N/A Rain Light Rain
1:55 PM 39.4 °F - 36.5 °F 89% 29.77 in 10.0 mi Calm Calm - N/A Rain Light Rain
2:15 PM 39.4 °F 31.1 °F 36.3 °F 89% 29.77 in 10.0 mi WNW 15.0 mph 20.7 mph 0.01 in Rain Rain
2:35 PM 40.1 °F 32.0 °F 36.9 °F 88% 29.78 in 10.0 mi NW 15.0 mph - 0.01 in Rain Light Rain
2:55 PM 40.3 °F 32.6 °F 37.0 °F 88% 29.78 in 10.0 mi WNW 13.8 mph - 0.01 in Rain Light Rain
3:15 PM 40.3 °F 32.6 °F 37.0 °F 88% 29.78 in 10.0 mi WNW 13.8 mph - N/A Rain Light Rain
3:35 PM 40.1 °F 31.6 °F 37.0 °F 89% 29.78 in 10.0 mi WNW 16.1 mph - 0.01 in Rain Light Rain
3:55 PM 40.3 °F 31.6 °F 37.0 °F 88% 29.78 in 10.0 mi WNW 17.3 mph - 0.01 in Rain Light Rain
4:15 PM 40.5 °F 32.1 °F 37.2 °F 88% 29.78 in 10.0 mi WNW 16.1 mph - N/A Rain Light Rain
4:35 PM 40.5 °F 31.5 °F 37.4 °F 89% 29.77 in 10.0 mi WNW 18.4 mph - N/A Rain Rain
4:55 PM 40.6 °F 32.0 °F 37.6 °F 89% 29.77 in 7.0 mi WNW 17.3 mph - N/A   Drizzle
5:15 PM 41.0 °F 32.5 °F 37.9 °F 89% 29.77 in 7.0 mi WNW 17.3 mph - 0.01 in Rain Rain
5:35 PM 40.5 °F 31.5 °F 37.4 °F 89% 29.78 in 7.0 mi WNW 18.4 mph 25.3 mph 0.01 in   Drizzle
5:55 PM 40.5 °F 31.8 °F 37.6 °F 89% 29.78 in 7.0 mi NW 17.3 mph 21.9 mph 0.02 in   Drizzle
6:15 PM 40.3 °F 31.9 °F 37.6 °F 90% 29.78 in 5.0 mi WNW 16.1 mph - N/A   Heavy Drizzle
6:35 PM 40.6 °F 31.4 °F 37.8 °F 89% 29.78 in 7.0 mi NW 19.6 mph 24.2 mph N/A   Drizzle
6:55 PM 40.3 °F 31.0 °F 37.4 °F 89% 29.78 in 7.0 mi WNW 19.6 mph 23.0 mph 0.01 in Rain Rain
7:15 PM 40.3 °F 33.4 °F 37.8 °F 91% 29.78 in 7.0 mi WNW 11.5 mph 19.6 mph N/A Rain Rain
7:35 PM 40.5 °F 35.8 °F 38.3 °F 92% 29.78 in 3.0 mi WNW 6.9 mph - N/A Rain Heavy Rain
7:55 PM 41.0 °F 33.1 °F 38.7 °F 91% 29.78 in 7.0 mi WNW 15.0 mph - 0.01 in   Drizzle
8:15 PM 41.0 °F - 38.8 °F 92% 29.78 in 7.0 mi Calm Calm - N/A Rain Rain
8:35 PM 41.0 °F 39.0 °F 39.2 °F 93% 29.78 in 7.0 mi WNW 3.5 mph - N/A Rain Light Rain
8:55 PM 41.0 °F 34.3 °F 39.2 °F 93% 29.78 in 10.0 mi WNW 11.5 mph - N/A Rain Rain
9:15 PM 41.2 °F 34.1 °F 39.0 °F 92% 29.78 in 10.0 mi WNW 12.7 mph - N/A   Drizzle
9:35 PM 41.2 °F 33.4 °F 38.7 °F 91% 29.78 in 10.0 mi WNW 15.0 mph - N/A   Drizzle
10:15 PM 41.0 °F 33.9 °F 38.5 °F 91% 29.78 in 10.0 mi WNW 12.7 mph - N/A Rain Rain
10:35 PM 41.2 °F 33.4 °F 39.0 °F 92% 29.78 in 10.0 mi WNW 15.0 mph - N/A Rain Light Rain
11:15 PM 41.2 °F 34.1 °F 39.2 °F 93% 29.77 in 7.0 mi WNW 12.7 mph 19.6 mph N/A Rain Light Rain
11:35 PM 41.0 °F 33.5 °F 38.7 °F 91% 29.77 in 7.0 mi WNW 13.8 mph 21.9 mph N/A Rain Light Rain
11:55 PM 41.0 °F 33.5 °F 38.7 °F 91% 29.77 in 7.0 mi NW 13.8 mph - N/A Rain Rain